Probability
10 13 10 6 3 3 3 3 3 3 0 0 0 0 0 0 0 0 0 0 0 0 0 0 0 0 0 0 0 0 3 3 6 3 3 3 0 3 0 0 0 0 0
10 6 10 6 3 3 3 3 3 3 0 0 0 0 0 0 0 0 0 0 0 0 0 0 0 0 0 0 0 0 0 3 3 3 6 6 6 3 3 0 0 0 0
6 10 6 10 6 3 3 3 3 3 0 0 0 0 0 0 0 0 0 0 0 0 0 0 0 0 0 0 0 0 0 0 0 3 3 3 0 0 0 0 0 0 0
6 10 6 6 6 0 0 0 0 0 0 0 0 0 0 0 0 0 0 0 0 0 0 0 0 0 0 0 0 0 0 0 3 0 0 0 0 0 0 0 0 0 0
6 6 3 3 0 0 0 0 0 0 0 0 0 0 0 0 0 0 0 0 0 0 0 0 0 0 0 0 0 0 0 0 0 0 0 0 0 0 0 0 0 0 0
3 3 6 0 0 3 3 0 0 0 0 0 0 0 0 0 0 0 0 0 0 0 0 0 0 0 0 0 0 0 0 0 0 0 0 0 0 0 0 0 0 0 0
0 6 0 0 0 0 0 0 0 0 0 0 0 0 0 0 0 0 0 0 0 0 0 0 0 0 0 0 0 0 0 0 0 0 0 0 3 3 0 0 3 0 0
0 0 0 0 0 0 0 0 0 0 0 0 0 0 0 0 0 0 0 0 0 0 0 0 0 0 0 0 0 0 0 0 0 0 0 3 3 3 0 0 0 0 0
0 0 0 0 0 0 0 0 0 0 0 0 0 0 0 0 0 0 0 0 0 0 0 0 0 0 0 0 0 0 0 0 0 0 0 3 3 3 0 0 0 0 0
0 0 0 0 0 0 0 0 0 0 0 0 0 0 0 0 0 0 0 0 0 0 0 0 0 0 0 0 0 0 0 0 0 0 0 3 3 3 3 0 0 0 0
0 0 0 0 0 0 0 0 0 0 0 0 0 0 0 0 0 0 0 0 0 0 0 0 0 0 0 0 0 0 0 0 0 0 0 3 3 3 0 0 0 0 0
3 0 0 0 0 0 0 0 0 0 0 0 0 0 0 0 0 0 0 0 0 0 0 0 0 0 0 0 0 0 0 0 0 0 0 0 0 0 0 0 0 0 0
0 0 0 0 0 0 0 0 0 0 0 0 0 0 0 0 0 0 0 0 0 0 0 0 0 0 0 0 0 0 0 0 0 0 0 0 0 0 0 0 0 0 0
0 0 0 0 0 0 0 0 0 0 0 0 0 0 0 0 0 0 0 0 0 0 0 0 0 0 0 0 0 0 0 0 0 0 0 0 0 0 0 0 0 0 0
0 0 0 0 0 0 0 0 0 0 0 0 0 0 0 0 0 0 0 0 0 0 0 0 0 0 0 0 0 0 0 0 0 0 0 0 0 0 0 0 0 0 0
0 0 0 0 0 0 0 0 0 0 0 0 0 0 0 0 0 0 0 0 0 0 0 0 0 0 0 0 0 0 0 0 0 0 0 0 0 0 0 0 0 0 0
0 0 0 0 0 0 0 0 0 0 0 0 0 0 0 0 0 0 0 0 0 0 0 0 0 0 0 0 0 0 0 0 0 0 0 0 0 0 0 0 0 0 0
0 0 0 0 0 0 0 0 0 0 0 0 0 0 0 0 0 0 0 0 0 0 0 0 0 0 0 0 0 0 0 0 0 0 0 0 0 0 0 0 0 0 0
0 0 0 0 0 0 0 0 0 0 0 0 0 0 0 0 0 0 0 0 0 0 0 0 0 0 0 0 0 0 0 0 0 0 0 0 0 0 0 0 0 0 0
0 0 0 0 0 0 0 0 0 0 0 0 0 0 0 0 0 0 0 0 0 0 0 0 0 0 0 0 0 0 0 0 0 0 0 0 0 0 0 0 0 0 0
0 0 0 0 0 0 0 0 0 0 0 0 0 0 0 0 0 0 0 0 0 0 0 0 0 0 0 0 0 0 0 0 0 0 0 0 0 0 0 0 0 0 0
0 0 0 0 0 0 0 0 0 0 0 0 0 0 0 0 0 0 0 0 0 0 0 0 0 0 0 0 0 0 0 0 0 0 0 0 0 0 0 0 0 0 0
0 0 0 0 0 0 0 0 0 0 0 0 0 0 0 0 0 0 0 0 0 0 0 0 0 0 0 0 0 0 0 0 0 0 0 0 0 0 0 0 0 0 0
0 0 0 0 0 0 0 0 0 0 0 0 0 0 0 0 0 0 0 0 0 0 0 0 0 0 0 0 0 0 0 0 0 0 0 0 0 0 0 0 0 0 0
0 0 0 0 0 0 0 0 0 0 0 0 0 0 0 0 0 0 0 0 0 0 0 0 0 0 0 0 0 0 0 0 0 0 0 0 0 0 0 0 0 0 0
0 0 0 0 0 0 0 0 0 0 0 0 0 0 0 0 0 0 0 0 0 0 0 0 0 0 0 0 0 0 0 0 0 0 0 0 0 0 0 0 0 0 0
Height
5828 5828 5827 5827 5826 5825 5824 5822 5821 5819 5817 5815 5813 5811 5809 5807 5805 5803 5801 5798 5796 5793 5791 5788 5786 5784 5782 5780 5779 5778 5777 5775 5774 5773 5772 5771 5769 5768 5767 5766 5765 5764 5764
5822 5822 5821 5821 5820 5819 5817 5815 5814 5812 5810 5808 5806 5804 5802 5800 5797 5795 5793 5790 5787 5785 5782 5780 5777 5775 5773 5771 5769 5768 5767 5766 5765 5763 5762 5761 5760 5758 5756 5756 5755 5754 5754
5815 5815 5815 5814 5813 5812 5811 5809 5807 5806 5804 5802 5799 5797 5795 5792 5790 5787 5784 5782 5779 5776 5774 5771 5769 5766 5764 5762 5760 5758 5757 5756 5755 5753 5752 5751 5749 5747 5746 5745 5745 5744 5743
5809 5809 5808 5808 5807 5806 5804 5803 5801 5799 5797 5795 5792 5790 5787 5785 5782 5779 5776 5773 5770 5768 5765 5763 5760 5758 5755 5753 5751 5749 5748 5746 5745 5743 5741 5740 5739 5737 5736 5735 5735 5734 5733
5802 5802 5801 5801 5800 5799 5797 5796 5794 5792 5790 5788 5785 5782 5780 5777 5774 5771 5768 5765 5762 5759 5757 5754 5752 5749 5746 5743 5741 5739 5737 5736 5734 5732 5731 5729 5728 5727 5726 5725 5724 5722 5722
5795 5795 5794 5793 5793 5791 5790 5788 5786 5784 5782 5780 5778 5775 5772 5769 5766 5763 5760 5757 5754 5751 5748 5745 5743 5740 5737 5734 5731 5729 5727 5725 5723 5721 5720 5718 5716 5716 5715 5714 5712 5711 5710
5788 5787 5787 5786 5785 5784 5783 5781 5779 5777 5774 5772 5770 5767 5764 5761 5758 5755 5752 5749 5746 5742 5739 5736 5733 5730 5728 5725 5722 5719 5717 5715 5713 5711 5709 5707 5705 5704 5703 5702 5702 5700 5699
5780 5780 5779 5779 5778 5777 5775 5773 5771 5769 5766 5764 5762 5759 5757 5754 5750 5747 5744 5740 5737 5734 5730 5727 5724 5720 5718 5715 5713 5710 5707 5705 5703 5701 5699 5697 5695 5693 5692 5691 5690 5688 5687
5773 5773 5772 5771 5770 5769 5767 5765 5763 5761 5759 5756 5754 5751 5749 5746 5743 5740 5736 5732 5729 5725 5721 5718 5714 5711 5708 5705 5703 5700 5698 5696 5693 5691 5688 5686 5684 5682 5681 5679 5678 5676 5675
5765 5765 5764 5764 5763 5761 5759 5757 5755 5753 5751 5749 5746 5744 5741 5738 5735 5733 5730 5726 5722 5717 5713 5709 5705 5702 5699 5696 5693 5691 5688 5686 5684 5681 5678 5676 5673 5671 5669 5667 5666 5664 5663
5758 5757 5756 5756 5755 5753 5752 5750 5748 5746 5744 5742 5739 5737 5734 5731 5728 5725 5723 5719 5715 5710 5705 5701 5697 5693 5690 5687 5684 5682 5679 5676 5673 5670 5668 5665 5662 5660 5657 5656 5655 5653 5652
5750 5749 5748 5748 5747 5745 5744 5742 5740 5739 5737 5734 5732 5729 5727 5724 5721 5717 5715 5712 5708 5703 5698 5693 5689 5685 5681 5678 5675 5672 5669 5666 5663 5660 5657 5654 5651 5649 5647 5646 5644 5643 5641
5742 5741 5741 5740 5739 5737 5736 5734 5733 5731 5729 5727 5724 5722 5719 5716 5713 5710 5707 5703 5700 5696 5691 5686 5681 5677 5673 5670 5666 5663 5660 5656 5653 5650 5647 5644 5641 5639 5637 5636 5634 5632 5630
5733 5733 5732 5731 5730 5729 5728 5727 5725 5723 5721 5719 5717 5714 5711 5708 5705 5702 5699 5695 5692 5689 5684 5679 5673 5669 5665 5662 5659 5655 5652 5649 5645 5642 5639 5635 5632 5629 5628 5626 5624 5622 5620
5725 5725 5724 5723 5722 5721 5720 5719 5717 5715 5713 5711 5709 5706 5704 5701 5698 5694 5691 5687 5684 5680 5677 5672 5667 5662 5658 5655 5652 5649 5645 5641 5638 5634 5631 5628 5624 5622 5619 5617 5614 5612 5610
5717 5717 5716 5715 5714 5713 5712 5711 5709 5707 5705 5703 5701 5698 5696 5693 5690 5686 5683 5679 5675 5671 5668 5664 5660 5656 5652 5648 5645 5642 5639 5635 5631 5627 5624 5621 5618 5614 5611 5608 5605 5603 5601
5709 5708 5708 5707 5706 5705 5704 5703 5701 5699 5697 5695 5693 5691 5688 5685 5682 5679 5675 5672 5668 5664 5660 5657 5653 5649 5646 5642 5639 5636 5632 5628 5625 5621 5618 5614 5611 5607 5604 5601 5598 5595 5593
5700 5700 5699 5698 5698 5697 5696 5694 5693 5691 5689 5687 5685 5682 5680 5677 5674 5670 5667 5664 5660 5656 5653 5650 5647 5643 5640 5636 5633 5629 5625 5622 5618 5615 5611 5608 5604 5600 5597 5594 5591 5588 5586
5691 5691 5691 5690 5689 5688 5687 5686 5684 5682 5680 5678 5676 5674 5671 5668 5666 5662 5659 5656 5653 5649 5646 5643 5640 5637 5634 5630 5627 5623 5619 5615 5612 5608 5605 5602 5598 5595 5591 5587 5584 5581 5579
5683 5683 5682 5682 5681 5680 5679 5677 5675 5673 5671 5669 5667 5665 5663 5660 5658 5655 5652 5649 5646 5643 5640 5637 5634 5631 5628 5624 5620 5617 5614 5610 5606 5603 5600 5596 5593 5590 5586 5582 5579 5576 5573
5674 5674 5674 5673 5673 5672 5671 5669 5666 5664 5662 5660 5658 5656 5654 5652 5650 5647 5645 5642 5640 5637 5634 5631 5628 5625 5622 5618 5615 5611 5608 5604 5601 5598 5595 5592 5588 5585 5581 5577 5574 5570 5567
5665 5665 5665 5665 5664 5663 5662 5660 5658 5656 5654 5652 5650 5648 5646 5644 5642 5640 5638 5636 5633 5630 5628 5625 5622 5619 5616 5612 5609 5606 5602 5599 5596 5594 5590 5587 5583 5580 5576 5572 5569 5565 5561
5656 5656 5656 5656 5655 5655 5653 5652 5650 5648 5646 5645 5643 5641 5639 5637 5635 5633 5631 5629 5626 5624 5622 5619 5616 5613 5610 5607 5604 5600 5597 5593 5591 5588 5585 5582 5578 5574 5571 5567 5563 5560 5556
5646 5647 5647 5647 5646 5646 5645 5644 5642 5640 5639 5637 5635 5634 5632 5630 5628 5626 5625 5623 5620 5618 5616 5614 5611 5608 5605 5602 5598 5595 5592 5589 5586 5583 5580 5578 5574 5570 5566 5562 5558 5554 5551
5637 5637 5637 5638 5637 5637 5636 5635 5634 5633 5631 5630 5628 5627 5625 5623 5622 5620 5619 5617 5615 5613 5611 5608 5606 5603 5600 5597 5594 5591 5588 5585 5583 5580 5576 5573 5569 5565 5561 5557 5553 5549 5545
5627 5628 5628 5628 5628 5628 5628 5627 5626 5625 5624 5622 5621 5619 5618 5617 5615 5614 5612 5611 5609 5608 5606 5604 5601 5598 5596 5593 5590 5588 5585 5582 5579 5576 5572 5568 5564 5560 5557 5552 5547 5543 5539
Wind_Speed
29 29 29 29 29 29 30 31 31 32 32 32 32 33 33 34 35 35 36 36 36 37 37 37 38 38 38 38 38 38 39 39 39 40 40 39 40 41 41 41 41 41 41
30 30 30 30 30 31 31 31 31 32 32 32 33 34 34 35 35 35 36 37 37 37 37 37 37 38 38 38 38 39 39 39 40 40 41 41 41 42 41 41 42 42 42
31 31 31 31 31 31 31 32 32 32 32 33 34 34 34 35 35 36 37 36 36 37 37 36 36 37 37 38 38 38 38 38 39 40 41 42 42 42 42 42 42 42 42
32 32 32 32 32 32 32 33 33 33 33 34 34 35 35 36 36 37 37 37 37 36 36 36 36 36 37 38 38 39 39 39 40 40 41 42 42 42 43 43 43 43 42
32 32 33 33 33 33 33 33 33 34 34 35 35 35 36 36 36 37 37 37 37 36 35 36 36 37 38 38 38 39 40 41 41 41 41 42 43 43 42 43 44 44 43
33 33 33 33 32 33 33 34 34 34 35 35 35 36 36 36 36 36 36 36 36 36 36 37 37 38 38 38 39 39 40 40 40 41 41 42 43 44 43 43 44 43 44
33 33 33 33 32 33 33 33 34 34 35 35 35 35 35 35 36 36 36 36 36 37 37 37 38 38 38 38 38 39 39 39 40 40 41 42 42 43 43 43 44 44 45
33 32 31 32 33 33 33 34 34 35 35 35 35 35 34 34 35 36 35 36 36 37 38 38 38 38 38 38 37 37 38 38 39 40 41 41 42 43 43 42 44 45 44
34 33 33 32 32 33 34 34 34 34 34 34 34 34 34 33 33 34 34 35 35 36 37 38 38 38 38 38 37 37 37 38 38 39 40 41 41 42 43 42 43 44 44
33 33 33 34 33 33 34 33 33 32 32 33 33 33 33 33 33 32 33 34 35 36 37 37 37 38 38 38 37 37 37 38 38 39 40 40 41 42 42 43 42 43 43
33 34 34 34 34 34 33 32 32 32 32 32 32 32 32 33 33 33 33 33 34 35 36 37 37 37 37 37 37 37 37 37 38 38 39 40 40 41 41 41 41 41 41
33 33 33 34 34 34 33 32 32 33 33 33 33 33 33 33 33 34 34 33 34 35 36 36 37 36 36 35 36 36 37 37 37 37 38 38 38 38 38 38 39 39 40
33 33 33 34 34 34 33 33 33 32 33 33 33 33 33 33 34 34 34 34 34 35 36 35 36 35 34 33 33 33 34 34 33 34 34 34 35 36 37 37 38 38 40
33 33 33 34 34 33 33 33 33 32 32 32 33 33 33 33 33 34 34 35 35 35 35 35 34 33 33 32 31 31 31 30 31 32 32 32 32 33 35 36 37 37 38
33 34 33 33 34 34 33 33 32 33 33 33 32 32 32 32 33 33 34 35 36 36 34 34 33 32 31 30 30 30 30 31 31 31 30 30 31 32 33 34 36 36 35
33 33 33 33 33 33 33 33 33 33 33 33 33 33 33 32 33 34 34 35 36 35 34 32 32 31 30 30 30 30 30 30 30 30 31 30 30 31 33 33 32 32 33
32 32 32 32 33 33 33 33 33 33 33 33 33 33 33 33 33 33 34 34 34 33 32 31 32 30 29 28 29 29 30 31 30 30 30 30 30 31 31 31 31 32 32
32 32 32 32 33 33 33 34 34 34 33 33 33 33 33 34 34 34 34 34 33 32 31 30 29 29 28 29 29 30 30 31 30 30 29 29 29 29 30 31 31 30 30
33 32 32 32 33 33 33 34 34 34 33 33 33 33 33 33 33 33 33 32 32 31 31 29 29 29 29 29 29 30 30 29 29 28 27 27 28 28 29 30 29 28 28
34 33 32 32 32 33 33 33 34 33 33 33 33 33 33 32 32 31 31 30 30 31 30 29 29 29 29 30 29 28 27 26 26 26 25 26 27 26 27 27 26 25 26
34 33 32 32 32 32 32 33 33 32 32 33 32 32 31 31 31 30 30 29 30 30 29 29 29 29 29 29 28 27 26 25 25 25 25 26 27 27 26 26 25 25 26
34 33 33 33 32 32 32 32 31 32 31 31 31 31 30 30 30 30 30 30 30 29 28 28 28 28 27 27 26 25 25 25 25 24 24 25 27 27 26 26 25 26 26
34 34 34 34 33 32 32 32 32 31 30 30 30 30 30 29 29 29 29 29 29 28 27 26 26 26 26 25 25 24 23 24 24 24 24 25 26 27 26 25 25 25 25
35 34 34 34 33 32 31 31 31 31 30 30 29 29 29 28 28 28 27 27 27 26 25 25 25 25 24 23 23 22 22 23 23 23 24 24 25 26 25 25 25 24 25
35 34 34 33 33 33 32 31 31 31 30 30 29 29 27 27 27 26 26 26 25 24 24 23 23 23 22 21 21 21 21 22 22 23 23 23 24 25 24 25 25 24 25
34 34 33 33 32 32 32 31 31 31 30 30 29 28 26 25 26 26 25 25 23 23 22 22 22 22 21 20 21 21 21 22 23 23 23 24 25 25 25 25 24 24 24
Wind_Direction
264 267 269 271 274 276 278 280 281 282 282 283 284 285 286 287 288 288 289 289 289 288 287 287 286 285 284 283 281 280 280 279 279 279 278 278 278 278 278 277 276 275 274
265 267 270 272 274 277 279 280 281 281 282 283 284 285 287 288 288 289 290 290 289 288 288 287 287 286 285 284 282 281 280 280 279 279 278 278 277 276 276 277 276 275 275
264 267 270 272 274 277 278 280 281 281 283 285 285 286 287 288 289 290 290 290 290 289 288 288 288 287 286 285 283 282 281 280 280 279 278 278 277 277 276 276 277 277 276
265 266 269 271 274 276 278 280 280 282 283 285 286 287 288 289 289 290 290 290 290 289 289 289 288 287 287 286 284 283 282 281 281 280 279 278 277 277 277 277 277 276 276
265 267 268 270 273 276 278 280 281 282 283 284 286 288 289 290 290 290 291 291 290 289 289 290 289 289 289 287 285 284 283 282 281 280 279 278 277 276 276 276 277 276 275
266 267 269 271 274 276 278 280 281 282 283 285 287 289 290 290 290 291 291 291 290 290 290 290 290 290 290 289 287 285 284 284 282 280 279 279 277 276 277 276 276 277 277
267 268 270 271 274 276 279 281 282 283 284 285 287 288 289 290 291 291 292 292 292 291 291 292 291 291 291 290 289 287 284 283 283 282 281 279 279 278 277 278 277 277 277
267 270 272 273 275 277 279 281 282 283 284 285 286 287 288 289 290 292 293 293 293 293 294 294 293 292 291 290 290 288 286 285 283 283 283 282 280 278 278 279 278 277 277
267 269 271 274 277 278 281 282 282 283 284 285 288 289 289 288 289 292 293 294 295 295 296 296 295 293 292 290 289 289 288 287 285 285 285 284 282 280 278 279 280 277 277
266 269 271 274 277 280 282 282 282 282 284 287 288 289 289 289 290 291 293 295 296 296 297 297 296 295 293 291 289 289 289 288 287 286 286 285 283 282 280 278 279 278 277
265 268 271 274 277 279 281 281 280 282 284 287 288 289 289 289 291 292 292 295 297 297 298 299 298 297 295 293 291 291 291 290 289 288 288 287 285 284 282 280 279 279 279
266 268 271 274 277 278 280 281 281 282 285 287 288 289 289 289 291 293 293 296 298 299 299 300 299 299 297 296 294 294 292 291 291 291 289 288 286 283 282 282 282 281 279
266 269 272 274 275 277 278 279 280 283 285 286 287 289 290 290 292 294 295 296 298 300 301 301 301 301 299 298 298 296 295 293 293 294 293 292 288 283 283 283 283 283 280
267 270 272 274 274 275 277 279 280 282 284 286 288 289 290 292 293 295 296 298 299 301 302 302 301 300 299 299 299 299 299 298 297 295 295 296 294 288 283 282 284 284 281
267 270 272 273 273 275 276 278 280 281 283 286 288 290 291 292 293 295 297 299 301 300 301 301 301 300 298 298 300 300 300 299 299 298 298 298 297 294 289 288 287 286 284
267 269 271 272 272 273 275 278 281 282 283 287 288 290 291 292 293 295 297 299 301 301 300 301 302 301 299 299 301 301 302 302 301 300 300 299 298 297 294 293 291 289 289
266 268 269 271 272 273 274 277 280 282 283 286 288 290 291 292 293 295 296 298 300 301 301 301 301 299 300 300 301 302 302 302 300 301 300 298 297 297 298 296 294 292 292
264 266 268 270 272 273 275 277 280 282 283 284 287 289 290 291 293 294 295 297 299 300 300 300 299 299 300 301 302 303 303 301 300 300 299 299 298 298 299 300 297 294 293
263 266 267 270 272 274 275 278 280 282 282 283 286 288 289 290 292 293 295 296 298 299 300 299 298 299 300 300 302 303 304 303 302 302 302 300 300 302 302 303 300 297 296
263 266 267 270 272 275 277 279 281 281 282 283 285 287 289 290 291 292 294 296 298 299 299 298 298 298 299 300 301 302 304 304 304 303 304 305 306 307 306 306 305 303 301
263 265 267 269 272 274 277 280 281 281 283 284 284 286 289 290 290 291 292 294 297 298 298 298 298 299 300 300 301 302 304 304 305 306 306 307 307 308 310 308 306 306 306
263 265 267 269 271 273 276 279 281 282 283 284 285 286 288 290 290 290 291 293 296 297 297 298 298 299 301 301 302 304 303 303 305 307 308 309 310 311 310 308 306 307 308
263 265 267 268 270 272 274 277 279 282 283 284 285 286 287 288 288 288 290 292 295 295 296 299 300 301 301 302 302 303 304 305 306 307 308 310 310 311 311 309 308 307 308
263 264 266 267 268 270 273 276 277 279 282 284 286 287 286 286 287 287 288 291 293 294 295 298 300 301 303 304 305 306 306 308 308 310 311 311 313 314 312 311 310 307 307
262 262 264 266 267 269 270 273 276 278 280 283 285 286 286 284 284 285 287 290 292 295 298 300 303 304 304 306 308 308 309 311 311 310 311 312 314 315 315 314 312 309 308
261 262 262 264 267 268 270 271 273 275 278 280 281 283 284 284 283 284 286 287 288 291 294 297 301 303 305 306 309 312 312 312 312 313 313 314 315 316 316 315 312 310 309